{"data":{"norad_id":69349,"epoch":"2026-09-19T07:58:51.265920Z","epoch_age_seconds":129883,"freshness":"FRESH","line1":"1 69349U 26122W   26262.33253780  .00016118  00000+0  50053-3 0  9995","line2":"2 69349  97.2848 291.0181 0000683 106.0276 254.1042 15.33443974 16628","mean_motion":15.33443974,"eccentricity":6.83e-5,"inclination_deg":97.2848,"raan_deg":291.0181,"arg_perigee_deg":106.0276,"mean_anomaly_deg":254.1042,"bstar":0.00050053,"rev_number":1662,"period_min":93.906267487801,"perigee_km":465.07880356957,"apogee_km":466.01365069839,"semimajor_km":6843.683227134,"source":"CELESTRAK","updated_at":"2026-09-20T09:00:44.163170Z"}}